Regional Weather Roundup
Issued by NWS Northern Indiana

Home | Current Version | Previous Version | Text Only | Print | Product List | Glossary On
Versions: 1 2 3 4 5 6 7 8 9 10 11 12 13 14 15 16 17 18 19 20 21 22 23 24 25 26 27 28 29 30 31 32 33 34 35 36 37 38 39 40 41 42 43 44 45 46 47 48 49 50
000
ASUS43 KIWX 311710
RWRIWX

KIWX WEATHER ROUNDUP
NATIONAL WEATHER SERVICE NORTHERN INDIANA
100 PM EDT FRI JUL 31 2015

NOTE: "FAIR" INDICATES FEW OR NO CLOUDS BELOW 12,000 FEET WITH NO
SIGNIFICANT WEATHER AND/OR OBSTRUCTIONS TO VISIBILITY.

* THESE STATIONS ARE NOT UNDER NWS QUALITY CONTROL. THEY ALSO MAY NOT
  REPORT WEATHER SUCH AS PRECIPITATION OR FOG.

INZ001>027-311800-
NORTHERN INDIANA

CITY           SKY/WX    TMP DP  RH WIND       PRES   REMARKS
GARY*          MOSUNNY   86  64  48 W16       29.99F
VALPARAISO     PTSUNNY   85  66  53 W15G25    29.99F
MICHIGAN CITY* SUNNY     81  61  50 NW9G17    29.99F
LAPORTE*       PTSUNNY   84  66  54 NW7G20    30.00S
KNOX*          MOSUNNY   82  64  54 W16       29.98F
SOUTH BEND     SUNNY     84  60  44 W16G25    29.99S
ELKHART*       SUNNY     86  59  39 W15G21    29.98F
GOSHEN         SUNNY     83  64  52 W14G23    29.97F
MONTICELLO*    SUNNY     84  68  57 W7G16     30.02F
LOGANSPORT*    MOSUNNY   84  57  39 W13G20    30.03F
ROCHESTER*     SUNNY     86  68  54 W9        30.01F
WARSAW*        MOSUNNY   82  63  51 W12G20    29.99F
ANGOLA*        SUNNY     84  63  48 W13       29.97F
FORT WAYNE     MOSUNNY   84  58  40 W15G23    30.01F
HUNTINGTON*    MOSUNNY   83  57  40 NW7G16    30.01F
PERU/GRISSOM   SUNNY     85  64  49 W12G23    30.02F
MARION*        SUNNY     83  58  42 W13       30.04F

$$
INZ028>050-311800-
CENTRAL INDIANA

CITY           SKY/WX    TMP DP  RH WIND       PRES   REMARKS
LAFAYETTE      SUNNY     83  68  60 W8        30.03F
KOKOMO*        SUNNY     84  61  45 W15       30.03F
MUNCIE*        SUNNY     82  59  45 W12       30.04F
INDIANAPOLIS   MOSUNNY   86  55  34 NW10      30.05F

$$
MIZ043>046-050>051-056>058-064>065-071>073-077>080-311800-
SOUTHWEST LOWER MICHIGAN

CITY           SKY/WX    TMP DP  RH WIND       PRES   REMARKS
BATTLE CREEK   MOSUNNY   83  60  45 W15       29.95F
BENTON HARBOR  SUNNY     80  64  58 W14       29.98S
COLDWATER*     MOSUNNY   82  57  41 SW16      29.96F
HILLSDALE*     MOSUNNY   82  59  45 W13G20    29.97F
HOLLAND        SUNNY     80  63  55 W9        29.95F
GRAND RAPIDS   MOSUNNY   84  55  36 W16G29    29.93F
KALAMAZOO      MOSUNNY   83  62  49 W15       29.95F
STURGIS*       SUNNY     82  61  47 W16       29.96F
THREE RIVERS*  FAIR      84  60  42 W20G26    29.96F

$$
OHZ001>008-015>018-024>025-311800-
NORTHWEST OHIO

CITY           SKY/WX    TMP DP  RH WIND       PRES   REMARKS
WAUSEON*       FAIR      84  61  45 NW15      29.96F
DEFIANCE       MOSUNNY   86  57  37 W9        29.97F
FINDLAY        SUNNY     85  60  42 W12G23    29.98F
TOLEDO EXPRESS SUNNY     84  59  42 SW18      29.95F
TOLEDO METCALF MOSUNNY   85  58  39 W16G22    29.96F
LIMA           SUNNY     83  59  44 W10       30.01F

$$
AND FOR LAKE MICHIGAN COASTAL AND OPEN LAKE BUOY OBSERVATIONS

STATION/POSITION TEMP    WIND        PRES    VSBY  WAVE
                 AIR SEA DIR/SP/G                  HT/PER
                 (F)     (DEG/KT/KT) (MB)    (MI)  (FT/S)
CALUMET HARBOR    83     250/  7/ 10   N/A
MICHIGAN CITY     76     250/ 11/ 12   N/A
BURNS HARBOR      77     290/ 11/ 15 1016.3S
SAINT JOSEPH      78     230/  9/ 12 1015.9S
4 MI NW BRIDGMAN  74 74  290/ 12/ 12   N/A           3/ 3
MICHIGAN CITY     75 74  300/  8/ 10   N/A           2/ 3

$$
&&



USA.gov is the U.S. government's official web portal to all federal, state and local government web resources and services.